Time,TemperatureF,DewpointF,PressureIn,WindDirection,WindDirectionDegrees,WindSpeedMPH,WindSpeedGustMPH,Humidity,HourlyPrecipIn,Conditions,Clouds,dailyrainin,SoftwareType,DateUTC
2013-03-06 00:01:00,34.3,19.4,28.87,North,0,0.0,2.0,54,0.00,,,0.00,meteohub,2013-03-06 06:01:00,
2013-03-06 00:06:00,34.7,20.7,28.87,North,0,2.0,2.0,56,0.00,,,0.00,meteohub,2013-03-06 06:06:00,
2013-03-06 00:11:00,34.9,19.9,28.87,NE,45,3.0,3.0,54,0.00,,,0.00,meteohub,2013-03-06 06:11:00,
2013-03-06 00:16:00,35.1,19.6,28.86,North,0,2.0,3.0,53,0.00,,,0.00,meteohub,2013-03-06 06:16:00,
2013-03-06 00:21:00,35.4,19.6,28.87,NE,45,2.0,3.0,52,0.00,,,0.00,meteohub,2013-03-06 06:21:00,
2013-03-06 00:26:00,35.2,18.9,28.86,North,0,2.0,3.0,51,0.00,,,0.00,meteohub,2013-03-06 06:26:00,
2013-03-06 00:31:00,35.8,19.0,28.86,North,0,2.0,2.0,50,0.00,,,0.00,meteohub,2013-03-06 06:31:00,
2013-03-06 00:36:00,36.3,18.5,28.86,NE,45,2.0,2.0,48,0.00,,,0.00,meteohub,2013-03-06 06:36:00,
2013-03-06 00:41:00,36.5,18.1,28.86,NE,45,2.0,3.0,47,0.00,,,0.00,meteohub,2013-03-06 06:41:00,
2013-03-06 00:46:00,36.7,17.4,28.86,NE,45,2.0,3.0,45,0.00,,,0.00,meteohub,2013-03-06 06:46:00,
2013-03-06 00:51:00,37.0,17.6,28.86,NE,45,2.0,3.0,45,0.00,,,0.00,meteohub,2013-03-06 06:51:00,
2013-03-06 00:56:00,36.3,17.6,28.85,NE,45,2.0,2.0,46,0.00,,,0.00,meteohub,2013-03-06 06:56:00,
2013-03-06 01:01:00,36.0,17.6,28.86,NE,45,0.0,2.0,47,0.00,,,0.00,meteohub,2013-03-06 07:01:00,
2013-03-06 01:06:00,35.4,17.2,28.86,NE,45,0.0,2.0,47,0.00,,,0.00,meteohub,2013-03-06 07:06:00,
2013-03-06 01:11:00,35.2,18.0,28.86,NE,45,1.0,2.0,49,0.00,,,0.00,meteohub,2013-03-06 07:11:00,
2013-03-06 01:16:00,34.9,18.1,28.86,NE,45,1.0,1.0,50,0.00,,,0.00,meteohub,2013-03-06 07:16:00,
2013-03-06 01:21:00,34.9,18.5,28.86,NE,45,0.0,1.0,51,0.00,,,0.00,meteohub,2013-03-06 07:21:00,
2013-03-06 01:26:00,35.1,19.6,28.86,NE,45,1.0,1.0,53,0.00,,,0.00,meteohub,2013-03-06 07:26:00,
2013-03-06 01:31:00,34.9,19.0,28.87,SE,135,0.0,2.0,52,0.00,,,0.00,meteohub,2013-03-06 07:31:00,
2013-03-06 01:36:00,34.9,19.4,28.86,South,180,0.0,2.0,53,0.00,,,0.00,meteohub,2013-03-06 07:36:00,
2013-03-06 01:41:00,34.9,19.4,28.86,NE,45,0.0,2.0,53,0.00,,,0.00,meteohub,2013-03-06 07:41:00,
2013-03-06 01:46:00,34.5,19.2,28.87,ENE,68,2.0,0.0,53,0.00,,,0.00,meteohub,2013-03-06 07:46:00,
2013-03-06 01:51:00,35.2,18.5,28.87,NE,45,2.0,2.0,50,0.00,,,0.00,meteohub,2013-03-06 07:51:00,
2013-03-06 01:56:00,35.6,18.3,28.87,NE,45,1.0,2.0,49,0.00,,,0.00,meteohub,2013-03-06 07:56:00,
2013-03-06 02:01:00,35.2,18.5,28.87,South,180,2.0,2.0,50,0.00,,,0.00,meteohub,2013-03-06 08:01:00,
2013-03-06 02:07:00,34.5,18.3,28.87,SE,135,1.0,2.0,51,0.00,,,0.00,meteohub,2013-03-06 08:07:00,
2013-03-06 02:12:00,33.6,18.3,28.87,SW,225,2.0,2.0,53,0.00,,,0.00,meteohub,2013-03-06 08:12:00,
2013-03-06 02:17:00,32.4,18.5,28.87,SW,225,0.0,3.0,56,0.00,,,0.00,meteohub,2013-03-06 08:17:00,
2013-03-06 02:22:00,31.3,18.1,28.87,SW,225,0.0,3.0,58,0.00,,,0.00,meteohub,2013-03-06 08:22:00,
2013-03-06 02:27:00,30.4,18.5,28.86,SW,225,0.0,3.0,61,0.00,,,0.00,meteohub,2013-03-06 08:27:00,
2013-03-06 02:32:00,29.5,18.1,28.87,SW,225,0.0,0.0,62,0.00,,,0.00,meteohub,2013-03-06 08:32:00,
2013-03-06 02:37:00,29.5,19.2,28.87,SW,225,0.0,0.0,65,0.00,,,0.00,meteohub,2013-03-06 08:37:00,
2013-03-06 02:42:00,29.5,20.3,28.86,NE,45,3.0,3.0,68,0.00,,,0.00,meteohub,2013-03-06 08:42:00,
2013-03-06 02:47:00,31.1,20.7,28.86,East,90,3.0,4.0,65,0.00,,,0.00,meteohub,2013-03-06 08:47:00,
2013-03-06 02:52:00,32.4,20.5,28.86,NE,45,4.0,4.0,61,0.00,,,0.00,meteohub,2013-03-06 08:52:00,
2013-03-06 02:57:00,32.9,20.8,28.86,NE,45,5.0,6.0,61,0.00,,,0.00,meteohub,2013-03-06 08:57:00,
2013-03-06 03:02:00,33.1,20.7,28.86,NE,45,4.0,6.0,60,0.00,,,0.00,meteohub,2013-03-06 09:02:00,
2013-03-06 03:07:00,33.3,21.2,28.86,NE,45,3.0,6.0,61,0.00,,,0.00,meteohub,2013-03-06 09:07:00,
2013-03-06 03:12:00,33.3,20.8,28.86,NE,45,1.0,5.0,60,0.00,,,0.00,meteohub,2013-03-06 09:12:00,
2013-03-06 03:17:00,33.4,21.0,28.86,SW,225,1.0,4.0,60,0.00,,,0.00,meteohub,2013-03-06 09:17:00,
2013-03-06 03:22:00,32.7,20.3,28.85,SW,225,0.0,3.0,60,0.00,,,0.00,meteohub,2013-03-06 09:22:00,
2013-03-06 03:27:00,32.5,21.0,28.85,East,90,2.0,2.0,62,0.00,,,0.00,meteohub,2013-03-06 09:27:00,
2013-03-06 03:32:00,32.4,20.5,28.86,East,90,2.0,2.0,61,0.00,,,0.00,meteohub,2013-03-06 09:32:00,
2013-03-06 03:37:00,32.4,20.8,28.85,NE,45,3.0,3.0,62,0.00,,,0.00,meteohub,2013-03-06 09:37:00,
2013-03-06 03:42:00,32.4,20.5,28.85,East,90,2.0,3.0,61,0.00,,,0.00,meteohub,2013-03-06 09:42:00,
2013-03-06 03:47:00,32.5,20.7,28.85,NE,45,2.0,3.0,61,0.00,,,0.00,meteohub,2013-03-06 09:47:00,
2013-03-06 03:52:00,32.7,20.3,28.85,ENE,68,4.0,4.0,60,0.00,,,0.00,meteohub,2013-03-06 09:52:00,
2013-03-06 03:57:00,32.9,20.5,28.85,East,90,4.0,4.0,60,0.00,,,0.00,meteohub,2013-03-06 09:57:00,
2013-03-06 04:02:00,32.5,20.1,28.85,NE,45,4.0,4.0,60,0.00,,,0.00,meteohub,2013-03-06 10:02:00,
2013-03-06 04:07:00,32.7,21.2,28.85,NE,45,4.0,5.0,62,0.00,,,0.00,meteohub,2013-03-06 10:07:00,
2013-03-06 04:12:00,32.5,21.4,28.85,NE,45,2.0,5.0,63,0.00,,,0.00,meteohub,2013-03-06 10:12:00,
2013-03-06 04:17:00,32.5,21.4,28.85,East,90,1.0,4.0,63,0.00,,,0.00,meteohub,2013-03-06 10:17:00,
2013-03-06 04:22:00,32.4,20.8,28.86,East,90,0.0,4.0,62,0.00,,,0.00,meteohub,2013-03-06 10:22:00,
2013-03-06 04:27:00,32.2,20.7,28.86,SE,135,1.0,3.0,62,0.00,,,0.00,meteohub,2013-03-06 10:27:00,
2013-03-06 04:32:00,31.8,20.3,28.86,East,90,0.0,2.0,62,0.00,,,0.00,meteohub,2013-03-06 10:32:00,
2013-03-06 04:37:00,31.5,20.3,28.86,North,0,2.0,2.0,63,0.00,,,0.00,meteohub,2013-03-06 10:37:00,
2013-03-06 04:42:00,31.5,21.0,28.86,NE,45,2.0,2.0,65,0.00,,,0.00,meteohub,2013-03-06 10:42:00,
2013-03-06 04:47:00,31.1,20.3,28.86,East,90,2.0,2.0,64,0.00,,,0.00,meteohub,2013-03-06 10:47:00,
2013-03-06 04:52:00,31.1,20.3,28.86,East,90,2.0,2.0,64,0.00,,,0.00,meteohub,2013-03-06 10:52:00,
2013-03-06 04:57:00,30.9,20.5,28.87,East,90,0.0,2.0,65,0.00,,,0.00,meteohub,2013-03-06 10:57:00,
2013-03-06 05:02:00,30.7,20.3,28.87,East,90,1.0,2.0,65,0.00,,,0.00,meteohub,2013-03-06 11:02:00,
2013-03-06 05:07:00,30.9,20.5,28.87,East,90,1.0,2.0,65,0.00,,,0.00,meteohub,2013-03-06 11:07:00,
2013-03-06 05:12:00,30.6,20.1,28.87,East,90,0.0,1.0,65,0.00,,,0.00,meteohub,2013-03-06 11:12:00,
2013-03-06 05:17:00,30.4,19.9,28.87,East,90,0.0,1.0,65,0.00,,,0.00,meteohub,2013-03-06 11:17:00,
2013-03-06 05:22:00,29.8,19.6,28.87,East,90,0.0,1.0,65,0.00,,,0.00,meteohub,2013-03-06 11:22:00,
2013-03-06 05:27:00,29.5,19.6,28.87,East,90,0.0,0.0,66,0.00,,,0.00,meteohub,2013-03-06 11:27:00,
2013-03-06 05:32:00,29.7,19.8,28.87,East,90,0.0,0.0,66,0.00,,,0.00,meteohub,2013-03-06 11:32:00,
2013-03-06 05:37:00,29.8,19.9,28.87,East,90,0.0,0.0,66,0.00,,,0.00,meteohub,2013-03-06 11:37:00,
2013-03-06 05:42:00,29.7,19.8,28.87,SW,225,0.0,0.0,66,0.00,,,0.00,meteohub,2013-03-06 11:42:00,
2013-03-06 05:47:00,29.7,20.1,28.87,SW,225,0.0,0.0,67,0.00,,,0.00,meteohub,2013-03-06 11:47:00,
2013-03-06 05:52:00,29.7,20.1,28.87,East,90,0.0,0.0,67,0.00,,,0.00,meteohub,2013-03-06 11:52:00,
2013-03-06 05:57:00,29.3,20.1,28.88,SW,225,1.0,0.0,68,0.00,,,0.00,meteohub,2013-03-06 11:57:00,
2013-03-06 06:02:00,28.9,19.8,28.87,SW,225,0.0,2.0,68,0.00,,,0.00,meteohub,2013-03-06 12:02:00,
2013-03-06 06:07:00,28.6,19.8,28.88,SW,225,0.0,2.0,69,0.00,,,0.00,meteohub,2013-03-06 12:07:00,
2013-03-06 06:12:00,28.2,19.4,28.88,SW,225,0.0,2.0,69,0.00,,,0.00,meteohub,2013-03-06 12:12:00,
2013-03-06 06:17:00,27.9,19.4,28.88,SW,225,0.0,2.0,70,0.00,,,0.00,meteohub,2013-03-06 12:17:00,
2013-03-06 06:22:00,27.7,19.6,28.88,SW,225,0.0,2.0,71,0.00,,,0.00,meteohub,2013-03-06 12:22:00,
2013-03-06 06:27:00,27.5,19.6,28.88,SW,225,0.0,2.0,72,0.00,,,0.00,meteohub,2013-03-06 12:27:00,
2013-03-06 06:32:00,27.7,19.8,28.88,East,90,0.0,1.0,72,0.00,,,0.00,meteohub,2013-03-06 12:32:00,
2013-03-06 06:37:00,27.9,20.3,28.89,East,90,0.0,0.0,73,0.00,,,0.00,meteohub,2013-03-06 12:37:00,
2013-03-06 06:42:00,28.2,20.3,28.89,East,90,0.0,0.0,72,0.00,,,0.00,meteohub,2013-03-06 12:42:00,
2013-03-06 06:47:00,28.8,20.8,28.89,SE,135,0.0,0.0,72,0.00,,,0.00,meteohub,2013-03-06 12:47:00,
2013-03-06 06:52:00,28.8,20.5,28.89,South,180,0.0,0.0,71,0.00,,,0.00,meteohub,2013-03-06 12:52:00,
2013-03-06 06:57:00,28.9,20.7,28.89,South,180,0.0,0.0,71,0.00,,,0.00,meteohub,2013-03-06 12:57:00,
2013-03-06 07:02:00,29.1,20.5,28.89,South,180,0.0,0.0,70,0.00,,,0.00,meteohub,2013-03-06 13:02:00,
2013-03-06 07:07:00,29.1,20.5,28.89,South,180,0.0,0.0,70,0.00,,,0.00,meteohub,2013-03-06 13:07:00,
2013-03-06 07:12:00,29.3,20.7,28.90,South,180,0.0,0.0,70,0.00,,,0.00,meteohub,2013-03-06 13:12:00,
2013-03-06 07:17:00,29.5,20.8,28.90,South,180,0.0,0.0,70,0.00,,,0.00,meteohub,2013-03-06 13:17:00,
2013-03-06 07:22:00,30.0,21.4,28.90,SE,135,0.0,0.0,70,0.00,,,0.00,meteohub,2013-03-06 13:22:00,
2013-03-06 07:27:00,30.2,21.2,28.90,South,180,2.0,0.0,69,0.00,,,0.00,meteohub,2013-03-06 13:27:00,
2013-03-06 07:32:00,30.9,21.6,28.90,South,180,2.0,2.0,68,0.00,,,0.00,meteohub,2013-03-06 13:32:00,
2013-03-06 07:37:00,31.6,22.3,28.90,East,90,2.0,2.0,68,0.00,,,0.00,meteohub,2013-03-06 13:37:00,
2013-03-06 07:42:00,32.2,22.8,28.89,East,90,4.0,4.0,68,0.00,,,0.00,meteohub,2013-03-06 13:42:00,
2013-03-06 07:47:00,32.9,23.2,28.90,East,90,4.0,4.0,67,0.00,,,0.00,meteohub,2013-03-06 13:47:00,
2013-03-06 07:52:00,33.4,23.0,28.90,SE,135,2.0,5.0,65,0.00,,,0.00,meteohub,2013-03-06 13:52:00,
2013-03-06 07:57:00,33.6,22.8,28.89,NE,45,8.0,8.0,64,0.00,,,0.00,meteohub,2013-03-06 13:57:00,
2013-03-06 08:02:00,33.8,22.5,28.90,SE,135,5.0,8.0,63,0.00,,,0.00,meteohub,2013-03-06 14:02:00,
2013-03-06 08:07:00,34.2,22.8,28.90,East,90,5.0,8.0,63,0.00,,,0.00,meteohub,2013-03-06 14:07:00,
2013-03-06 08:12:00,34.3,23.0,28.90,East,90,4.0,8.0,63,0.00,,,0.00,meteohub,2013-03-06 14:12:00,
2013-03-06 08:17:00,34.7,23.0,28.90,East,90,7.0,7.0,62,0.00,,,0.00,meteohub,2013-03-06 14:17:00,
2013-03-06 08:22:00,34.9,22.5,28.90,East,90,5.0,8.0,60,0.00,,,0.00,meteohub,2013-03-06 14:22:00,
2013-03-06 08:28:00,35.4,23.0,28.90,East,90,7.0,9.0,60,0.00,,,0.00,meteohub,2013-03-06 14:28:00,
2013-03-06 08:33:00,35.2,22.3,28.90,East,90,7.0,9.0,59,0.00,,,0.00,meteohub,2013-03-06 14:33:00,
2013-03-06 08:38:00,35.1,22.6,28.90,ESE,113,8.0,11.0,60,0.00,,,0.00,meteohub,2013-03-06 14:38:00,
2013-03-06 08:43:00,35.4,23.4,28.90,East,90,8.0,11.0,61,0.00,,,0.00,meteohub,2013-03-06 14:43:00,
2013-03-06 08:48:00,35.2,22.8,28.90,East,90,6.0,11.0,60,0.00,,,0.00,meteohub,2013-03-06 14:48:00,
2013-03-06 08:53:00,35.8,22.8,28.91,East,90,11.0,11.0,59,0.00,,,0.00,meteohub,2013-03-06 14:53:00,
2013-03-06 08:58:00,36.0,23.0,28.91,East,90,9.0,12.0,59,0.00,,,0.00,meteohub,2013-03-06 14:58:00,
2013-03-06 09:03:00,36.3,23.7,28.91,East,90,7.0,12.0,60,0.00,,,0.00,meteohub,2013-03-06 15:03:00,
2013-03-06 09:08:00,36.3,24.1,28.91,East,90,8.0,12.0,61,0.00,,,0.00,meteohub,2013-03-06 15:08:00,
2013-03-06 09:13:00,36.9,25.0,28.91,East,90,9.0,12.0,62,0.00,,,0.00,meteohub,2013-03-06 15:13:00,
2013-03-06 09:18:00,37.6,25.0,28.91,East,90,8.0,11.0,60,0.00,,,0.00,meteohub,2013-03-06 15:18:00,
2013-03-06 09:23:00,37.9,25.0,28.91,SE,135,7.0,12.0,59,0.00,,,0.00,meteohub,2013-03-06 15:23:00,
2013-03-06 09:28:00,38.1,24.6,28.91,East,90,8.0,12.0,58,0.00,,,0.00,meteohub,2013-03-06 15:28:00,
2013-03-06 09:33:00,38.3,24.4,28.91,East,90,11.0,12.0,57,0.00,,,0.00,meteohub,2013-03-06 15:33:00,
2013-03-06 09:38:00,38.3,24.8,28.91,East,90,5.0,12.0,58,0.00,,,0.00,meteohub,2013-03-06 15:38:00,
2013-03-06 09:43:00,38.5,25.3,28.91,East,90,8.0,12.0,59,0.00,,,0.00,meteohub,2013-03-06 15:43:00,
2013-03-06 09:48:00,39.4,25.0,28.91,East,90,8.0,12.0,56,0.00,,,0.00,meteohub,2013-03-06 15:48:00,
2013-03-06 09:53:00,39.7,25.0,28.91,East,90,7.0,12.0,55,0.00,,,0.00,meteohub,2013-03-06 15:53:00,
2013-03-06 09:58:00,40.5,24.6,28.91,East,90,7.0,13.0,53,0.00,,,0.00,meteohub,2013-03-06 15:58:00,
2013-03-06 10:03:00,40.5,24.3,28.90,East,90,8.0,14.0,52,0.00,,,0.00,meteohub,2013-03-06 16:03:00,
2013-03-06 10:08:00,41.2,25.9,28.90,ESE,113,7.0,14.0,54,0.00,,,0.00,meteohub,2013-03-06 16:08:00,
2013-03-06 10:13:00,41.9,24.6,28.90,East,90,11.0,14.0,50,0.00,,,0.00,meteohub,2013-03-06 16:13:00,
2013-03-06 10:18:00,41.9,24.1,28.90,East,90,13.0,13.0,49,0.00,,,0.00,meteohub,2013-03-06 16:18:00,
2013-03-06 10:23:00,41.4,24.1,28.90,SE,135,9.0,14.0,50,0.00,,,0.00,meteohub,2013-03-06 16:23:00,
2013-03-06 10:28:00,42.6,24.8,28.90,East,90,15.0,15.0,49,0.00,,,0.00,meteohub,2013-03-06 16:28:00,
2013-03-06 10:33:00,43.0,25.2,28.90,SE,135,10.0,15.0,49,0.00,,,0.00,meteohub,2013-03-06 16:33:00,
2013-03-06 10:38:00,43.3,23.9,28.89,East,90,8.0,15.0,46,0.00,,,0.00,meteohub,2013-03-06 16:38:00,
2013-03-06 10:43:00,43.5,25.2,28.90,NE,45,7.0,15.0,48,0.00,,,0.00,meteohub,2013-03-06 16:43:00,
2013-03-06 10:48:00,43.2,23.7,28.89,SE,135,9.0,14.0,46,0.00,,,0.00,meteohub,2013-03-06 16:48:00,
2013-03-06 10:53:00,43.2,24.3,28.89,East,90,7.0,13.0,47,0.00,,,0.00,meteohub,2013-03-06 16:53:00,
2013-03-06 10:58:00,43.5,25.2,28.88,East,90,8.0,11.0,48,0.00,,,0.00,meteohub,2013-03-06 16:58:00,
2013-03-06 11:03:00,43.5,24.1,28.89,ENE,68,8.0,13.0,46,0.00,,,0.00,meteohub,2013-03-06 17:03:00,
2013-03-06 11:08:00,43.3,24.4,28.88,East,90,10.0,13.0,47,0.00,,,0.00,meteohub,2013-03-06 17:08:00,
2013-03-06 11:13:00,43.3,23.4,28.88,SE,135,11.0,13.0,45,0.00,,,0.00,meteohub,2013-03-06 17:13:00,
2013-03-06 11:18:00,44.1,24.6,28.88,NE,45,11.0,12.0,46,0.00,,,0.00,meteohub,2013-03-06 17:18:00,
2013-03-06 11:23:00,44.2,24.3,28.87,SE,135,15.0,15.0,45,0.00,,,0.00,meteohub,2013-03-06 17:23:00,
2013-03-06 11:28:00,44.1,23.5,28.87,SE,135,13.0,15.0,44,0.00,,,0.00,meteohub,2013-03-06 17:28:00,
2013-03-06 11:33:00,44.4,24.4,28.87,East,90,7.0,17.0,45,0.00,,,0.00,meteohub,2013-03-06 17:33:00,
2013-03-06 11:38:00,44.8,24.8,28.87,SE,135,9.0,17.0,45,0.00,,,0.00,meteohub,2013-03-06 17:38:00,
2013-03-06 11:43:00,45.3,25.7,28.87,SE,135,8.0,17.0,46,0.00,,,0.00,meteohub,2013-03-06 17:43:00,
2013-03-06 11:48:00,46.0,25.3,28.87,SE,135,12.0,15.0,44,0.00,,,0.00,meteohub,2013-03-06 17:48:00,
2013-03-06 11:53:00,46.0,23.7,28.87,SE,135,9.0,15.0,41,0.00,,,0.00,meteohub,2013-03-06 17:53:00,
2013-03-06 11:58:00,46.2,24.4,28.86,SSE,158,15.0,15.0,42,0.00,,,0.00,meteohub,2013-03-06 17:58:00,
2013-03-06 12:04:00,46.4,24.6,28.86,SE,135,7.0,15.0,42,0.00,,,0.00,meteohub,2013-03-06 18:04:00,
2013-03-06 12:09:00,46.2,24.4,28.86,East,90,11.0,15.0,42,0.00,,,0.00,meteohub,2013-03-06 18:09:00,
2013-03-06 12:14:00,46.9,25.0,28.85,SE,135,8.0,15.0,42,0.00,,,0.00,meteohub,2013-03-06 18:14:00,
2013-03-06 12:19:00,46.4,23.9,28.85,East,90,9.0,15.0,41,0.00,,,0.00,meteohub,2013-03-06 18:19:00,
2013-03-06 12:24:00,46.8,24.8,28.85,SE,135,10.0,15.0,42,0.00,,,0.00,meteohub,2013-03-06 18:24:00,
2013-03-06 12:29:00,46.9,25.0,28.84,NE,45,8.0,14.0,42,0.00,,,0.00,meteohub,2013-03-06 18:29:00,
2013-03-06 12:34:00,47.7,24.4,28.84,East,90,7.0,14.0,40,0.00,,,0.00,meteohub,2013-03-06 18:34:00,
2013-03-06 12:39:00,48.0,23.5,28.84,South,180,11.0,14.0,38,0.00,,,0.00,meteohub,2013-03-06 18:39:00,
2013-03-06 12:44:00,48.0,24.3,28.83,East,90,11.0,12.0,39,0.00,,,0.00,meteohub,2013-03-06 18:44:00,
2013-03-06 12:49:00,48.0,24.3,28.83,SE,135,11.0,12.0,39,0.00,,,0.00,meteohub,2013-03-06 18:49:00,
2013-03-06 12:54:00,48.2,24.4,28.82,SE,135,13.0,13.0,39,0.00,,,0.00,meteohub,2013-03-06 18:54:00,
2013-03-06 12:59:00,48.4,24.6,28.82,SE,135,7.0,17.0,39,0.00,,,0.00,meteohub,2013-03-06 18:59:00,
2013-03-06 13:04:00,48.6,24.1,28.81,SE,135,10.0,17.0,38,0.00,,,0.00,meteohub,2013-03-06 19:04:00,
2013-03-06 13:09:00,48.7,24.3,28.81,ESE,113,11.0,17.0,38,0.00,,,0.00,meteohub,2013-03-06 19:09:00,
2013-03-06 13:14:00,48.4,23.9,28.81,SE,135,6.0,15.0,38,0.00,,,0.00,meteohub,2013-03-06 19:14:00,
2013-03-06 13:19:00,49.1,25.2,28.80,SE,135,9.0,14.0,39,0.00,,,0.00,meteohub,2013-03-06 19:19:00,
2013-03-06 13:24:00,49.1,23.9,28.80,SE,135,11.0,14.0,37,0.00,,,0.00,meteohub,2013-03-06 19:24:00,
2013-03-06 13:29:00,49.6,24.4,28.79,NE,45,9.0,14.0,37,0.00,,,0.00,meteohub,2013-03-06 19:29:00,
2013-03-06 13:34:00,49.8,23.9,28.79,SE,135,8.0,11.0,36,0.00,,,0.00,meteohub,2013-03-06 19:34:00,
2013-03-06 13:39:00,50.2,23.5,28.79,SSE,158,9.0,13.0,35,0.00,,,0.00,meteohub,2013-03-06 19:39:00,
2013-03-06 13:44:00,50.0,24.8,28.79,NE,45,10.0,13.0,37,0.00,,,0.00,meteohub,2013-03-06 19:44:00,
2013-03-06 13:49:00,50.0,24.1,28.78,SE,135,14.0,14.0,36,0.00,,,0.00,meteohub,2013-03-06 19:49:00,
2013-03-06 13:54:00,50.7,24.8,28.78,East,90,12.0,15.0,36,0.00,,,0.00,meteohub,2013-03-06 19:54:00,
2013-03-06 13:59:00,50.5,23.9,28.77,East,90,10.0,15.0,35,0.00,,,0.00,meteohub,2013-03-06 19:59:00,
2013-03-06 14:04:00,50.9,23.5,28.77,East,90,11.0,15.0,34,0.00,,,0.00,meteohub,2013-03-06 20:04:00,
2013-03-06 14:09:00,51.1,24.4,28.77,SE,135,8.0,14.0,35,0.00,,,0.00,meteohub,2013-03-06 20:09:00,
2013-03-06 14:14:00,51.4,24.1,28.76,East,90,11.0,14.0,34,0.00,,,0.00,meteohub,2013-03-06 20:14:00,
2013-03-06 14:19:00,51.1,22.3,28.76,SE,135,10.0,14.0,32,0.00,,,0.00,meteohub,2013-03-06 20:19:00,
2013-03-06 14:24:00,50.7,21.2,28.75,SE,135,12.0,12.0,31,0.00,,,0.00,meteohub,2013-03-06 20:24:00,
2013-03-06 14:29:00,50.7,21.9,28.75,SE,135,11.0,12.0,32,0.00,,,0.00,meteohub,2013-03-06 20:29:00,
2013-03-06 14:34:00,50.9,22.8,28.74,SE,135,12.0,15.0,33,0.00,,,0.00,meteohub,2013-03-06 20:34:00,
2013-03-06 14:39:00,50.9,22.8,28.74,East,90,10.0,15.0,33,0.00,,,0.00,meteohub,2013-03-06 20:39:00,
2013-03-06 14:44:00,50.9,22.8,28.73,SE,135,11.0,15.0,33,0.00,,,0.00,meteohub,2013-03-06 20:44:00,
2013-03-06 14:50:00,50.7,23.4,28.73,ESE,113,15.0,15.0,34,0.00,,,0.00,meteohub,2013-03-06 20:50:00,
2013-03-06 14:55:00,50.9,23.5,28.73,SE,135,8.0,15.0,34,0.00,,,0.00,meteohub,2013-03-06 20:55:00,
2013-03-06 15:00:00,50.9,21.4,28.73,SE,135,11.0,15.0,31,0.00,,,0.00,meteohub,2013-03-06 21:00:00,
2013-03-06 15:05:00,51.3,23.9,28.73,East,90,9.0,15.0,34,0.00,,,0.00,meteohub,2013-03-06 21:05:00,
2013-03-06 15:10:00,51.4,23.4,28.72,East,90,11.0,15.0,33,0.00,,,0.00,meteohub,2013-03-06 21:10:00,
2013-03-06 15:15:00,51.6,21.9,28.72,SE,135,12.0,13.0,31,0.00,,,0.00,meteohub,2013-03-06 21:15:00,
2013-03-06 15:20:00,51.4,21.7,28.72,East,90,15.0,15.0,31,0.00,,,0.00,meteohub,2013-03-06 21:20:00,
2013-03-06 15:25:00,51.3,23.2,28.72,East,90,9.0,14.0,33,0.00,,,0.00,meteohub,2013-03-06 21:25:00,
2013-03-06 15:30:00,51.1,23.0,28.71,East,90,13.0,15.0,33,0.00,,,0.00,meteohub,2013-03-06 21:30:00,
2013-03-06 15:35:00,51.3,23.2,28.71,SE,135,12.0,15.0,33,0.00,,,0.00,meteohub,2013-03-06 21:35:00,
2013-03-06 15:40:00,51.3,22.5,28.70,East,90,15.0,15.0,32,0.00,,,0.00,meteohub,2013-03-06 21:40:00,
2013-03-06 15:45:00,51.4,23.4,28.71,East,90,11.0,15.0,33,0.00,,,0.00,meteohub,2013-03-06 21:45:00,
2013-03-06 15:50:00,51.8,22.8,28.70,East,90,14.0,15.0,32,0.00,,,0.00,meteohub,2013-03-06 21:50:00,
2013-03-06 15:55:00,52.0,23.0,28.71,East,90,8.0,15.0,32,0.00,,,0.00,meteohub,2013-03-06 21:55:00,
2013-03-06 16:00:00,52.3,23.4,28.71,SE,135,9.0,15.0,32,0.00,,,0.00,meteohub,2013-03-06 22:00:00,
2013-03-06 16:05:00,52.3,22.6,28.71,SE,135,12.0,14.0,31,0.00,,,0.00,meteohub,2013-03-06 22:05:00,
2013-03-06 16:10:00,52.9,22.3,28.70,SE,135,11.0,14.0,30,0.00,,,0.00,meteohub,2013-03-06 22:10:00,
2013-03-06 16:15:00,53.2,24.1,28.70,East,90,5.0,15.0,32,0.00,,,0.00,meteohub,2013-03-06 22:15:00,
2013-03-06 16:20:00,53.4,22.8,28.70,East,90,13.0,15.0,30,0.00,,,0.00,meteohub,2013-03-06 22:20:00,
2013-03-06 16:25:00,53.2,22.6,28.70,SE,135,10.0,13.0,30,0.00,,,0.00,meteohub,2013-03-06 22:25:00,
2013-03-06 16:30:00,53.4,22.8,28.70,SE,135,10.0,16.0,30,0.00,,,0.00,meteohub,2013-03-06 22:30:00,
2013-03-06 16:35:00,53.4,21.9,28.70,SE,135,8.0,16.0,29,0.00,,,0.00,meteohub,2013-03-06 22:35:00,
2013-03-06 16:40:00,54.3,22.6,28.70,SSE,158,10.0,12.0,29,0.00,,,0.00,meteohub,2013-03-06 22:40:00,
2013-03-06 16:45:00,54.1,20.8,28.70,SE,135,15.0,15.0,27,0.00,,,0.00,meteohub,2013-03-06 22:45:00,
2013-03-06 16:50:00,54.3,22.6,28.70,SE,135,11.0,15.0,29,0.00,,,0.00,meteohub,2013-03-06 22:50:00,
2013-03-06 16:55:00,55.2,21.7,28.70,East,90,15.0,15.0,27,0.00,,,0.00,meteohub,2013-03-06 22:55:00,
2013-03-06 17:00:00,55.2,21.7,28.70,NE,45,10.0,15.0,27,0.00,,,0.00,meteohub,2013-03-06 23:00:00,
2013-03-06 17:05:00,54.1,20.8,28.69,East,90,8.0,15.0,27,0.00,,,0.00,meteohub,2013-03-06 23:05:00,
2013-03-06 17:10:00,53.6,22.1,28.69,NE,45,10.0,15.0,29,0.00,,,0.00,meteohub,2013-03-06 23:10:00,
2013-03-06 17:15:00,52.9,20.7,28.69,East,90,12.0,15.0,28,0.00,,,0.00,meteohub,2013-03-06 23:15:00,
2013-03-06 17:20:00,52.5,20.3,28.69,East,90,7.0,15.0,28,0.00,,,0.00,meteohub,2013-03-06 23:20:00,
2013-03-06 17:25:00,52.5,21.2,28.68,East,90,7.0,13.0,29,0.00,,,0.00,meteohub,2013-03-06 23:25:00,
2013-03-06 17:30:00,52.3,22.6,28.68,East,90,7.0,12.0,31,0.00,,,0.00,meteohub,2013-03-06 23:30:00,
2013-03-06 17:36:00,52.5,22.8,28.67,East,90,5.0,10.0,31,0.00,,,0.00,meteohub,2013-03-06 23:36:00,
2013-03-06 17:41:00,52.7,22.8,28.67,East,90,8.0,10.0,31,0.00,,,0.00,meteohub,2013-03-06 23:41:00,
2013-03-06 17:46:00,52.5,21.9,28.66,SE,135,9.0,11.0,30,0.00,,,0.00,meteohub,2013-03-06 23:46:00,
2013-03-06 17:51:00,52.5,21.9,28.66,SE,135,7.0,11.0,30,0.00,,,0.00,meteohub,2013-03-06 23:51:00,
2013-03-06 17:56:00,52.2,22.5,28.66,SE,135,9.0,11.0,31,0.00,,,0.00,meteohub,2013-03-06 23:56:00,
2013-03-06 18:01:00,52.2,21.7,28.66,East,90,8.0,11.0,30,0.00,,,0.00,meteohub,2013-03-07 00:01:00,
2013-03-06 18:06:00,52.3,22.6,28.66,East,90,8.0,11.0,31,0.00,,,0.00,meteohub,2013-03-07 00:06:00,
2013-03-06 18:11:00,52.3,22.6,28.66,East,90,5.0,11.0,31,0.00,,,0.00,meteohub,2013-03-07 00:11:00,
2013-03-06 18:16:00,52.0,22.3,28.66,East,90,8.0,9.0,31,0.00,,,0.00,meteohub,2013-03-07 00:16:00,
2013-03-06 18:21:00,51.8,22.8,28.66,ENE,68,6.0,10.0,32,0.00,,,0.00,meteohub,2013-03-07 00:21:00,
2013-03-06 18:26:00,51.8,22.8,28.66,East,90,8.0,10.0,32,0.00,,,0.00,meteohub,2013-03-07 00:26:00,
2013-03-06 18:31:00,51.3,22.5,28.66,SE,135,7.0,9.0,32,0.00,,,0.00,meteohub,2013-03-07 00:31:00,
2013-03-06 18:36:00,51.1,23.0,28.66,East,90,8.0,9.0,33,0.00,,,0.00,meteohub,2013-03-07 00:36:00,
2013-03-06 18:41:00,50.5,22.5,28.65,SE,135,8.0,10.0,33,0.00,,,0.00,meteohub,2013-03-07 00:41:00,
2013-03-06 18:46:00,50.5,22.5,28.65,East,90,6.0,11.0,33,0.00,,,0.00,meteohub,2013-03-07 00:46:00,
2013-03-06 18:51:00,50.0,22.1,28.65,East,90,7.0,11.0,33,0.00,,,0.00,meteohub,2013-03-07 00:51:00,
2013-03-06 18:56:00,50.0,22.1,28.65,East,90,9.0,11.0,33,0.00,,,0.00,meteohub,2013-03-07 00:56:00,
2013-03-06 19:01:00,50.0,22.1,28.65,East,90,8.0,9.0,33,0.00,,,0.00,meteohub,2013-03-07 01:01:00,
2013-03-06 19:06:00,49.8,21.9,28.64,East,90,8.0,11.0,33,0.00,,,0.00,meteohub,2013-03-07 01:06:00,
2013-03-06 19:11:00,49.8,21.9,28.64,East,90,10.0,11.0,33,0.00,,,0.00,meteohub,2013-03-07 01:11:00,
2013-03-06 19:16:00,49.3,22.1,28.65,East,90,8.0,11.0,34,0.00,,,0.00,meteohub,2013-03-07 01:16:00,
2013-03-06 19:23:00,48.7,22.3,28.64,SE,135,11.0,11.0,35,0.00,,,0.00,meteohub,2013-03-07 01:23:00,
2013-03-06 19:28:00,49.1,21.9,28.64,East,90,12.0,12.0,34,0.00,,,0.00,meteohub,2013-03-07 01:28:00,
2013-03-06 19:33:00,48.9,22.5,28.64,East,90,9.0,12.0,35,0.00,,,0.00,meteohub,2013-03-07 01:33:00,
2013-03-06 19:38:00,48.9,22.5,28.64,East,90,13.0,13.0,35,0.00,,,0.00,meteohub,2013-03-07 01:38:00,
2013-03-06 19:43:00,48.7,22.3,28.64,East,90,11.0,13.0,35,0.00,,,0.00,meteohub,2013-03-07 01:43:00,
2013-03-06 19:48:00,48.7,23.0,28.64,East,90,8.0,13.0,36,0.00,,,0.00,meteohub,2013-03-07 01:48:00,
2013-03-06 19:53:00,48.7,23.0,28.64,East,90,8.0,13.0,36,0.00,,,0.00,meteohub,2013-03-07 01:53:00,
2013-03-06 19:58:00,48.0,23.0,28.64,East,90,9.0,12.0,37,0.00,,,0.00,meteohub,2013-03-07 01:58:00,
2013-03-06 20:03:00,47.8,23.5,28.64,East,90,7.0,11.0,38,0.00,,,0.00,meteohub,2013-03-07 02:03:00,
2013-03-06 20:08:00,47.5,23.7,28.64,East,90,11.0,11.0,39,0.00,,,0.00,meteohub,2013-03-07 02:08:00,
2013-03-06 20:13:00,46.9,24.4,28.64,East,90,8.0,11.0,41,0.00,,,0.00,meteohub,2013-03-07 02:13:00,
2013-03-06 20:18:00,46.6,24.1,28.64,East,90,8.0,11.0,41,0.00,,,0.00,meteohub,2013-03-07 02:18:00,
2013-03-06 20:23:00,46.8,24.8,28.64,East,90,11.0,11.0,42,0.00,,,0.00,meteohub,2013-03-07 02:23:00,
2013-03-06 20:28:00,46.2,24.4,28.64,East,90,7.0,11.0,42,0.00,,,0.00,meteohub,2013-03-07 02:28:00,
2013-03-06 20:33:00,46.0,24.8,28.64,East,90,7.0,11.0,43,0.00,,,0.00,meteohub,2013-03-07 02:33:00,
2013-03-06 20:38:00,45.7,25.0,28.64,East,90,8.0,11.0,44,0.00,,,0.00,meteohub,2013-03-07 02:38:00,
2013-03-06 20:43:00,45.3,24.6,28.63,East,90,9.0,11.0,44,0.00,,,0.00,meteohub,2013-03-07 02:43:00,
2013-03-06 20:48:00,45.3,24.6,28.63,East,90,11.0,11.0,44,0.00,,,0.00,meteohub,2013-03-07 02:48:00,
2013-03-06 20:53:00,45.7,24.4,28.63,East,90,11.0,14.0,43,0.00,,,0.00,meteohub,2013-03-07 02:53:00,
2013-03-06 20:58:00,45.5,24.3,28.64,East,90,8.0,14.0,43,0.00,,,0.00,meteohub,2013-03-07 02:58:00,
2013-03-06 21:03:00,45.9,24.6,28.64,SE,135,7.0,14.0,43,0.00,,,0.00,meteohub,2013-03-07 03:03:00,
2013-03-06 21:08:00,45.9,24.1,28.64,East,90,9.0,14.0,42,0.00,,,0.00,meteohub,2013-03-07 03:08:00,
2013-03-06 21:13:00,45.9,24.1,28.63,East,90,10.0,12.0,42,0.00,,,0.00,meteohub,2013-03-07 03:13:00,
2013-03-06 21:18:00,45.7,23.9,28.63,East,90,11.0,12.0,42,0.00,,,0.00,meteohub,2013-03-07 03:18:00,
2013-03-06 21:23:00,45.7,23.9,28.63,East,90,10.0,12.0,42,0.00,,,0.00,meteohub,2013-03-07 03:23:00,
2013-03-06 21:28:00,45.9,24.1,28.63,East,90,8.0,12.0,42,0.00,,,0.00,meteohub,2013-03-07 03:28:00,
2013-03-06 21:33:00,45.3,23.5,28.63,East,90,9.0,12.0,42,0.00,,,0.00,meteohub,2013-03-07 03:33:00,
2013-03-06 21:38:00,45.1,23.4,28.63,East,90,9.0,12.0,42,0.00,,,0.00,meteohub,2013-03-07 03:38:00,
2013-03-06 21:43:00,45.0,23.2,28.63,East,90,11.0,12.0,42,0.00,,,0.00,meteohub,2013-03-07 03:43:00,
2013-03-06 21:48:00,45.1,22.8,28.63,East,90,8.0,11.0,41,0.00,,,0.00,meteohub,2013-03-07 03:48:00,
2013-03-06 21:53:00,45.0,22.1,28.63,East,90,11.0,11.0,40,0.00,,,0.00,meteohub,2013-03-07 03:53:00,
2013-03-06 21:58:00,45.0,22.6,28.63,East,90,9.0,11.0,41,0.00,,,0.00,meteohub,2013-03-07 03:58:00,
2013-03-06 22:03:00,44.6,22.3,28.63,East,90,8.0,11.0,41,0.00,,,0.00,meteohub,2013-03-07 04:03:00,
2013-03-06 22:08:00,44.2,23.2,28.62,East,90,8.0,11.0,43,0.00,,,0.00,meteohub,2013-03-07 04:08:00,
2013-03-06 22:14:00,43.9,22.8,28.63,East,90,6.0,10.0,43,0.00,,,0.00,meteohub,2013-03-07 04:14:00,
2013-03-06 22:19:00,43.5,23.0,28.63,East,90,8.0,10.0,44,0.00,,,0.00,meteohub,2013-03-07 04:19:00,
2013-03-06 22:24:00,43.5,23.0,28.63,East,90,8.0,10.0,44,0.00,,,0.00,meteohub,2013-03-07 04:24:00,
2013-03-06 22:29:00,43.5,22.5,28.62,East,90,11.0,11.0,43,0.00,,,0.00,meteohub,2013-03-07 04:29:00,
2013-03-06 22:34:00,43.7,22.6,28.63,East,90,10.0,11.0,43,0.00,,,0.00,meteohub,2013-03-07 04:34:00,
2013-03-06 22:39:00,43.9,22.3,28.63,East,90,11.0,11.0,42,0.00,,,0.00,meteohub,2013-03-07 04:39:00,
2013-03-06 22:44:00,43.7,22.1,28.63,East,90,8.0,11.0,42,0.00,,,0.00,meteohub,2013-03-07 04:44:00,
2013-03-06 22:49:00,43.5,21.9,28.62,SE,135,12.0,12.0,42,0.00,,,0.00,meteohub,2013-03-07 04:49:00,
2013-03-06 22:54:00,43.3,22.3,28.63,East,90,10.0,13.0,43,0.00,,,0.00,meteohub,2013-03-07 04:54:00,
2013-03-06 22:59:00,43.2,22.1,28.63,East,90,8.0,13.0,43,0.00,,,0.00,meteohub,2013-03-07 04:59:00,
2013-03-06 23:00:00,43.2,22.1,28.62,East,90,7.0,13.0,43,0.00,,,0.00,meteohub,2013-03-07 05:00:00,
2013-03-06 23:02:00,43.2,22.1,28.63,East,90,9.0,13.0,43,0.00,,,0.00,meteohub,2013-03-07 05:02:00,
2013-03-06 23:07:00,43.0,22.6,28.62,East,90,9.0,10.0,44,0.00,,,0.00,meteohub,2013-03-07 05:07:00,
2013-03-06 23:12:00,43.0,22.6,28.62,East,90,8.0,11.0,44,0.00,,,0.00,meteohub,2013-03-07 05:12:00,
2013-03-06 23:17:00,42.6,22.3,28.62,East,90,8.0,11.0,44,0.00,,,0.00,meteohub,2013-03-07 05:17:00,
2013-03-06 23:22:00,42.4,22.6,28.62,East,90,6.0,11.0,45,0.00,,,0.00,meteohub,2013-03-07 05:22:00,
2013-03-06 23:27:00,42.3,22.5,28.62,East,90,10.0,10.0,45,0.00,,,0.00,meteohub,2013-03-07 05:27:00,
2013-03-06 23:32:00,42.1,22.8,28.62,East,90,9.0,11.0,46,0.00,,,0.00,meteohub,2013-03-07 05:32:00,
2013-03-06 23:37:00,41.9,22.6,28.61,East,90,9.0,11.0,46,0.00,,,0.00,meteohub,2013-03-07 05:37:00,
2013-03-06 23:42:00,41.9,22.6,28.61,East,90,11.0,11.0,46,0.00,,,0.00,meteohub,2013-03-07 05:42:00,
2013-03-06 23:47:00,41.9,22.6,28.61,East,90,8.0,11.0,46,0.00,,,0.00,meteohub,2013-03-07 05:47:00,
2013-03-06 23:52:00,41.7,22.5,28.62,East,90,8.0,11.0,46,0.00,,,0.00,meteohub,2013-03-07 05:52:00,
2013-03-06 23:57:00,41.7,22.5,28.62,East,90,8.0,11.0,46,0.00,,,0.00,meteohub,2013-03-07 05:57:00,